<?xml version='1.0' encoding='UTF-8'?>
<gpx xmlns="http://www.topografix.com/GPX/1/1" creator="www.balnam.be" version="1.1" xmlns:xsi="http://www.w3.org/2001/XMLSchema-instance" xsi:schemaLocation="http://www.topografix.com/GPX/1/1 http://www.topografix.com/GPX/1/1/gpx.xsd">
<trk>
<name>hbmth1</name>
<cmt>v</cmt>
<desc>Thirimont Chemin n°1 Grand Vivier</desc>
<link href="https://chemins.be/thirimont/chemin/1"/><trkseg>
<trkpt lat="50.246591" lon="4.236050"><time>2026-05-02T16:11:54Z</time></trkpt>
<trkpt lat="50.245525" lon="4.236351"><time>2026-05-02T16:21:54Z</time></trkpt>
</trkseg>
</trk>
<trk>
<name>hbmth11</name>
<cmt>v</cmt>
<desc>Thirimont Chemin n°11 </desc>
<link href="https://chemins.be/thirimont/chemin/11"/><trkseg>
<trkpt lat="50.249812" lon="4.228110"><time>2026-05-02T16:11:54Z</time></trkpt>
<trkpt lat="50.250737" lon="4.234865"><time>2026-05-02T16:21:54Z</time></trkpt>
<trkpt lat="50.251499" lon="4.240542"><time>2026-05-02T16:31:54Z</time></trkpt>
<trkpt lat="50.251879" lon="4.243107"><time>2026-05-02T16:41:54Z</time></trkpt>
<trkpt lat="50.252653" lon="4.243722"><time>2026-05-02T16:51:54Z</time></trkpt>
</trkseg>
</trk>
<trk>
<name>hbmth12</name>
<cmt>v</cmt>
<desc>Thirimont Chemin n°12 </desc>
<link href="https://chemins.be/thirimont/chemin/12"/><trkseg>
<trkpt lat="50.248957" lon="4.242890"><time>2026-05-02T16:11:54Z</time></trkpt>
<trkpt lat="50.249946" lon="4.243084"><time>2026-05-02T16:21:54Z</time></trkpt>
<trkpt lat="50.251753" lon="4.243177"><time>2026-05-02T16:31:54Z</time></trkpt>
<trkpt lat="50.251562" lon="4.240612"><time>2026-05-02T16:41:54Z</time></trkpt>
<trkpt lat="50.253980" lon="4.240704"><time>2026-05-02T16:51:54Z</time></trkpt>
<trkpt lat="50.254565" lon="4.241039"><time>2026-05-02T17:01:54Z</time></trkpt>
</trkseg>
</trk>
<trk>
<name>hbmth16</name>
<cmt>s</cmt>
<desc>Thirimont Chemin n°16 </desc>
<link href="https://chemins.be/thirimont/chemin/16"/><trkseg>
<trkpt lat="50.264617" lon="4.226451"><time>2026-05-02T16:11:54Z</time></trkpt>
<trkpt lat="50.264731" lon="4.224678"><time>2026-05-02T16:21:54Z</time></trkpt>
<trkpt lat="50.265257" lon="4.222868"><time>2026-05-02T16:31:54Z</time></trkpt>
<trkpt lat="50.265892" lon="4.222360"><time>2026-05-02T16:41:54Z</time></trkpt>
</trkseg>
</trk>
<trk>
<name>hbmth17</name>
<cmt>v</cmt>
<desc>Thirimont Chemin n°17 </desc>
<link href="https://chemins.be/thirimont/chemin/17"/><trkseg>
<trkpt lat="50.264893" lon="4.235332"><time>2026-05-02T16:11:54Z</time></trkpt>
<trkpt lat="50.265787" lon="4.235066"><time>2026-05-02T16:21:54Z</time></trkpt>
<trkpt lat="50.266528" lon="4.235032"><time>2026-05-02T16:31:54Z</time></trkpt>
</trkseg>
</trk>
<trk>
<name>hbmth20</name>
<cmt>q</cmt>
<desc>Thirimont Chemin n°20 </desc>
<link href="https://chemins.be/thirimont/chemin/20"/><trkseg>
<trkpt lat="50.278807" lon="4.213942"><time>2026-05-02T16:11:54Z</time></trkpt>
<trkpt lat="50.278167" lon="4.210930"><time>2026-05-02T16:21:54Z</time></trkpt>
</trkseg>
</trk>
<trk>
<name>hbmth21</name>
<cmt>v</cmt>
<desc>Thirimont Chemin n°21 </desc>
<link href="https://chemins.be/thirimont/chemin/21"/><trkseg>
<trkpt lat="50.260121" lon="4.229457"><time>2026-05-02T16:11:54Z</time></trkpt>
<trkpt lat="50.259846" lon="4.229577"><time>2026-05-02T16:21:54Z</time></trkpt>
<trkpt lat="50.259552" lon="4.229527"><time>2026-05-02T16:31:54Z</time></trkpt>
<trkpt lat="50.258801" lon="4.229033"><time>2026-05-02T16:41:54Z</time></trkpt>
<trkpt lat="50.258293" lon="4.228653"><time>2026-05-02T16:51:54Z</time></trkpt>
<trkpt lat="50.257961" lon="4.228458"><time>2026-05-02T17:01:54Z</time></trkpt>
<trkpt lat="50.257552" lon="4.228398"><time>2026-05-02T17:11:54Z</time></trkpt>
<trkpt lat="50.257136" lon="4.228498"><time>2026-05-02T17:21:54Z</time></trkpt>
<trkpt lat="50.256165" lon="4.228428"><time>2026-05-02T17:31:54Z</time></trkpt>
<trkpt lat="50.255491" lon="4.228451"><time>2026-05-02T17:41:54Z</time></trkpt>
</trkseg></trk>
<trk>
<name>hbmth21</name>
<cmt>q</cmt>
<desc>Thirimont Chemin n°21 </desc>
<link href="https://chemins.be/thirimont/chemin/21"/><trkseg>
<trkpt lat="50.255491" lon="4.228451"><time>2026-05-02T17:41:54Z</time></trkpt>
<trkpt lat="50.255202" lon="4.228461"><time>2026-05-02T17:51:54Z</time></trkpt>
<trkpt lat="50.254644" lon="4.227210"><time>2026-05-02T18:01:54Z</time></trkpt>
<trkpt lat="50.253231" lon="4.225636"><time>2026-05-02T18:11:54Z</time></trkpt>
</trkseg>
</trk>
<trk>
<name>hbmth24</name>
<cmt>v</cmt>
<desc>Thirimont Chemin n°24 </desc>
<link href="https://chemins.be/thirimont/chemin/24"/><trkseg>
<trkpt lat="50.275074" lon="4.234629"><time>2026-05-02T16:11:54Z</time></trkpt>
<trkpt lat="50.274642" lon="4.233999"><time>2026-05-02T16:21:54Z</time></trkpt>
<trkpt lat="50.274390" lon="4.233312"><time>2026-05-02T16:31:54Z</time></trkpt>
<trkpt lat="50.273893" lon="4.231321"><time>2026-05-02T16:41:54Z</time></trkpt>
<trkpt lat="50.274026" lon="4.229834"><time>2026-05-02T16:51:54Z</time></trkpt>
<trkpt lat="50.273970" lon="4.228052"><time>2026-05-02T17:01:54Z</time></trkpt>
</trkseg>
</trk>
<trk>
<name>hbmth25</name>
<cmt>v</cmt>
<desc>Thirimont Chemin n°25 </desc>
<link href="https://chemins.be/thirimont/chemin/25"/><trkseg>
<trkpt lat="50.250911" lon="4.253310"><time>2026-05-02T16:11:54Z</time></trkpt>
<trkpt lat="50.251992" lon="4.253750"><time>2026-05-02T16:21:54Z</time></trkpt>
<trkpt lat="50.252332" lon="4.254790"><time>2026-05-02T16:31:54Z</time></trkpt>
<trkpt lat="50.255322" lon="4.258592"><time>2026-05-02T16:41:54Z</time></trkpt>
</trkseg></trk>
<trk>
<name>hbmth25</name>
<cmt>d</cmt>
<desc>Thirimont Chemin n°25 </desc>
<link href="https://chemins.be/thirimont/chemin/25"/><trkseg>
<trkpt lat="50.255322" lon="4.258592"><time>2026-05-02T16:41:54Z</time></trkpt>
<trkpt lat="50.256618" lon="4.259476"><time>2026-05-02T16:51:54Z</time></trkpt>
</trkseg>
</trk>
<trk>
<name>hbmth26</name>
<cmt>v</cmt>
<desc>Thirimont Chemin n°26 </desc>
<link href="https://chemins.be/thirimont/chemin/26"/><trkseg>
<trkpt lat="50.241847" lon="4.228511"><time>2026-05-02T16:11:54Z</time></trkpt>
<trkpt lat="50.242520" lon="4.227598"><time>2026-05-02T16:21:54Z</time></trkpt>
<trkpt lat="50.243645" lon="4.228296"><time>2026-05-02T16:31:54Z</time></trkpt>
<trkpt lat="50.243743" lon="4.227903"><time>2026-05-02T16:41:54Z</time></trkpt>
</trkseg></trk>
<trk>
<name>hbmth26</name>
<cmt>q</cmt>
<desc>Thirimont Chemin n°26 </desc>
<link href="https://chemins.be/thirimont/chemin/26"/><trkseg>
<trkpt lat="50.243743" lon="4.227903"><time>2026-05-02T16:41:54Z</time></trkpt>
<trkpt lat="50.243320" lon="4.227358"><time>2026-05-02T16:51:54Z</time></trkpt>
<trkpt lat="50.243174" lon="4.225662"><time>2026-05-02T17:01:54Z</time></trkpt>
</trkseg>
</trk>
<trk>
<name>hbmth29</name>
<cmt>v</cmt>
<desc>Thirimont Chemin n°29 </desc>
<link href="https://chemins.be/thirimont/chemin/29"/><trkseg>
<trkpt lat="50.257196" lon="4.266216"><time>2026-05-02T16:11:54Z</time></trkpt>
<trkpt lat="50.257487" lon="4.265723"><time>2026-05-02T16:21:54Z</time></trkpt>
<trkpt lat="50.257440" lon="4.265401"><time>2026-05-02T16:31:54Z</time></trkpt>
</trkseg>
</trk>
<trk>
<name>hbmth30</name>
<cmt>v</cmt>
<desc>Thirimont Chemin n°30 </desc>
<link href="https://chemins.be/thirimont/chemin/30"/><trkseg>
<trkpt lat="50.260168" lon="4.233341"><time>2026-05-02T16:11:54Z</time></trkpt>
<trkpt lat="50.259721" lon="4.232625"><time>2026-05-02T16:21:54Z</time></trkpt>
</trkseg>
</trk>
<trk>
<name>hbmth31</name>
<cmt>v</cmt>
<desc>Thirimont Chemin n°31 </desc>
<link href="https://chemins.be/thirimont/chemin/31"/><trkseg>
<trkpt lat="50.258247" lon="4.245755"><time>2026-05-02T16:11:54Z</time></trkpt>
<trkpt lat="50.259229" lon="4.247309"><time>2026-05-02T16:21:54Z</time></trkpt>
<trkpt lat="50.259284" lon="4.248276"><time>2026-05-02T16:31:54Z</time></trkpt>
<trkpt lat="50.261148" lon="4.251091"><time>2026-05-02T16:41:54Z</time></trkpt>
<trkpt lat="50.263683" lon="4.251084"><time>2026-05-02T16:51:54Z</time></trkpt>
</trkseg>
</trk>
<trk>
<name>hbmth32</name>
<cmt>q</cmt>
<desc>Thirimont Chemin n°32 </desc>
<link href="https://chemins.be/thirimont/chemin/32"/><trkseg>
<trkpt lat="50.268141" lon="4.234440"><time>2026-05-02T16:11:54Z</time></trkpt>
<trkpt lat="50.267768" lon="4.233968"><time>2026-05-02T16:21:54Z</time></trkpt>
<trkpt lat="50.266599" lon="4.230749"><time>2026-05-02T16:31:54Z</time></trkpt>
<trkpt lat="50.266599" lon="4.229161"><time>2026-05-02T16:41:54Z</time></trkpt>
</trkseg>
</trk>
<trk>
<name>hbmth32bis</name>
<cmt>q</cmt>
<desc>Thirimont Chemin n°32bis </desc>
<link href="https://chemins.be/thirimont/chemin/32bis"/><trkseg>
<trkpt lat="50.264887" lon="4.235290"><time>2026-05-02T16:11:54Z</time></trkpt>
<trkpt lat="50.264234" lon="4.234672"><time>2026-05-02T16:21:54Z</time></trkpt>
<trkpt lat="50.263373" lon="4.234697"><time>2026-05-02T16:31:54Z</time></trkpt>
<trkpt lat="50.262879" lon="4.235401"><time>2026-05-02T16:41:54Z</time></trkpt>
<trkpt lat="50.262199" lon="4.234869"><time>2026-05-02T16:51:54Z</time></trkpt>
<trkpt lat="50.262105" lon="4.233513"><time>2026-05-02T17:01:54Z</time></trkpt>
<trkpt lat="50.261359" lon="4.232483"><time>2026-05-02T17:11:54Z</time></trkpt>
</trkseg>
</trk>
<trk>
<name>hbmth33</name>
<cmt>q</cmt>
<desc>Thirimont Sentier n°33 </desc>
<link href="https://chemins.be/thirimont/sentier/33"/><trkseg>
<trkpt lat="50.274678" lon="4.210575"><time>2026-05-02T16:11:54Z</time></trkpt>
<trkpt lat="50.274377" lon="4.210097"><time>2026-05-02T16:21:54Z</time></trkpt>
<trkpt lat="50.273122" lon="4.210108"><time>2026-05-02T16:31:54Z</time></trkpt>
<trkpt lat="50.272158" lon="4.208263"><time>2026-05-02T16:41:54Z</time></trkpt>
</trkseg>
</trk>
<trk>
<name>hbmth34</name>
<cmt>v</cmt>
<desc>Thirimont Sentier n°34 </desc>
<link href="https://chemins.be/thirimont/sentier/34"/><trkseg>
<trkpt lat="50.275279" lon="4.210321"><time>2026-05-02T16:11:54Z</time></trkpt>
<trkpt lat="50.275246" lon="4.211866"><time>2026-05-02T16:21:54Z</time></trkpt>
<trkpt lat="50.275147" lon="4.212553"><time>2026-05-02T16:31:54Z</time></trkpt>
<trkpt lat="50.275136" lon="4.216930"><time>2026-05-02T16:41:54Z</time></trkpt>
<trkpt lat="50.274784" lon="4.218467"><time>2026-05-02T16:51:54Z</time></trkpt>
</trkseg></trk>
<trk>
<name>hbmth34</name>
<cmt>q</cmt>
<desc>Thirimont Sentier n°34 </desc>
<link href="https://chemins.be/thirimont/sentier/34"/><trkseg>
<trkpt lat="50.274784" lon="4.218467"><time>2026-05-02T16:51:54Z</time></trkpt>
<trkpt lat="50.274713" lon="4.219016"><time>2026-05-02T17:01:54Z</time></trkpt>
<trkpt lat="50.274855" lon="4.219093"><time>2026-05-02T17:11:54Z</time></trkpt>
<trkpt lat="50.275234" lon="4.222106"><time>2026-05-02T17:21:54Z</time></trkpt>
<trkpt lat="50.274521" lon="4.224664"><time>2026-05-02T17:31:54Z</time></trkpt>
<trkpt lat="50.273967" lon="4.227015"><time>2026-05-02T17:41:54Z</time></trkpt>
<trkpt lat="50.273851" lon="4.227925"><time>2026-05-02T17:51:54Z</time></trkpt>
</trkseg>
</trk>
<trk>
<name>hbmth37</name>
<cmt>v</cmt>
<desc>Thirimont Sentier n°37 </desc>
<link href="https://chemins.be/thirimont/sentier/37"/><trkseg>
<trkpt lat="50.262785" lon="4.230832"><time>2026-05-02T16:11:54Z</time></trkpt>
<trkpt lat="50.263195" lon="4.231273"><time>2026-05-02T16:21:54Z</time></trkpt>
<trkpt lat="50.263441" lon="4.231580"><time>2026-05-02T16:31:54Z</time></trkpt>
<trkpt lat="50.263655" lon="4.231888"><time>2026-05-02T16:41:54Z</time></trkpt>
<trkpt lat="50.263912" lon="4.232435"><time>2026-05-02T16:51:54Z</time></trkpt>
<trkpt lat="50.264136" lon="4.232360"><time>2026-05-02T17:01:54Z</time></trkpt>
<trkpt lat="50.264422" lon="4.232282"><time>2026-05-02T17:11:54Z</time></trkpt>
</trkseg></trk>
<trk>
<name>hbmth37</name>
<cmt>q</cmt>
<desc>Thirimont Sentier n°37 </desc>
<link href="https://chemins.be/thirimont/sentier/37"/><trkseg>
<trkpt lat="50.264422" lon="4.232282"><time>2026-05-02T17:11:54Z</time></trkpt>
<trkpt lat="50.264763" lon="4.231981"><time>2026-05-02T17:21:54Z</time></trkpt>
<trkpt lat="50.265634" lon="4.232208"><time>2026-05-02T17:31:54Z</time></trkpt>
<trkpt lat="50.267019" lon="4.234925"><time>2026-05-02T17:41:54Z</time></trkpt>
<trkpt lat="50.267550" lon="4.235440"><time>2026-05-02T17:51:54Z</time></trkpt>
<trkpt lat="50.268546" lon="4.237128"><time>2026-05-02T18:01:54Z</time></trkpt>
<trkpt lat="50.270805" lon="4.238716"><time>2026-05-02T18:11:54Z</time></trkpt>
<trkpt lat="50.271573" lon="4.238702"><time>2026-05-02T18:21:54Z</time></trkpt>
<trkpt lat="50.272442" lon="4.238559"><time>2026-05-02T18:31:54Z</time></trkpt>
</trkseg>
</trk>
<trk>
<name>hbmth37bis</name>
<cmt>q</cmt>
<desc>Thirimont Sentier n°37bis </desc>
<link href="https://chemins.be/thirimont/sentier/37bis"/><trkseg>
<trkpt lat="50.263900" lon="4.232431"><time>2026-05-02T16:11:54Z</time></trkpt>
<trkpt lat="50.263526" lon="4.233118"><time>2026-05-02T16:21:54Z</time></trkpt>
</trkseg>
</trk>
<trk>
<name>hbmth38</name>
<cmt>q</cmt>
<desc>Thirimont Sentier n°38 </desc>
<link href="https://chemins.be/thirimont/sentier/38"/><trkseg>
<trkpt lat="50.266663" lon="4.238702"><time>2026-05-02T16:11:54Z</time></trkpt>
<trkpt lat="50.269077" lon="4.238473"><time>2026-05-02T16:21:54Z</time></trkpt>
<trkpt lat="50.269507" lon="4.238988"><time>2026-05-02T16:31:54Z</time></trkpt>
<trkpt lat="50.271180" lon="4.239103"><time>2026-05-02T16:41:54Z</time></trkpt>
<trkpt lat="50.271628" lon="4.238716"><time>2026-05-02T16:51:54Z</time></trkpt>
</trkseg>
</trk>
<trk>
<name>hbmth39</name>
<cmt>r</cmt>
<desc>Thirimont Sentier n°39 Rue des Champs des Lièvres</desc>
<link href="https://chemins.be/thirimont/sentier/39"/><trkseg>
<trkpt lat="50.270332" lon="4.242180"><time>2026-05-02T16:11:54Z</time></trkpt>
<trkpt lat="50.271635" lon="4.243453"><time>2026-05-02T16:21:54Z</time></trkpt>
<trkpt lat="50.272764" lon="4.243911"><time>2026-05-02T16:31:54Z</time></trkpt>
</trkseg>
</trk>
<trk>
<name>hbmth4</name>
<cmt>v</cmt>
<desc>Thirimont Chemin n°4 </desc>
<link href="https://chemins.be/thirimont/chemin/4"/><trkseg>
<trkpt lat="50.275955" lon="4.210487"><time>2026-05-02T16:11:54Z</time></trkpt>
<trkpt lat="50.278199" lon="4.210958"><time>2026-05-02T16:21:54Z</time></trkpt>
</trkseg>
</trk>
<trk>
<name>hbmth40</name>
<cmt>q</cmt>
<desc>Thirimont Chemin n°40 </desc>
<link href="https://chemins.be/thirimont/chemin/40"/><trkseg>
<trkpt lat="50.262352" lon="4.231586"><time>2026-05-02T16:11:54Z</time></trkpt>
<trkpt lat="50.263232" lon="4.232594"><time>2026-05-02T16:21:54Z</time></trkpt>
<trkpt lat="50.263542" lon="4.233097"><time>2026-05-02T16:31:54Z</time></trkpt>
<trkpt lat="50.264113" lon="4.234663"><time>2026-05-02T16:41:54Z</time></trkpt>
<trkpt lat="50.264253" lon="4.234719"><time>2026-05-02T16:51:54Z</time></trkpt>
<trkpt lat="50.264385" lon="4.235367"><time>2026-05-02T17:01:54Z</time></trkpt>
<trkpt lat="50.264632" lon="4.236139"><time>2026-05-02T17:11:54Z</time></trkpt>
<trkpt lat="50.264854" lon="4.236259"><time>2026-05-02T17:21:54Z</time></trkpt>
</trkseg>
</trk>
<trk>
<name>hbmth41</name>
<cmt>q</cmt>
<desc>Thirimont Sentier n°41 </desc>
<link href="https://chemins.be/thirimont/sentier/41"/><trkseg>
<trkpt lat="50.266882" lon="4.241449"><time>2026-05-02T16:11:54Z</time></trkpt>
<trkpt lat="50.269287" lon="4.251906"><time>2026-05-02T16:21:54Z</time></trkpt>
<trkpt lat="50.269159" lon="4.254738"><time>2026-05-02T16:31:54Z</time></trkpt>
<trkpt lat="50.268848" lon="4.255038"><time>2026-05-02T16:41:54Z</time></trkpt>
</trkseg>
</trk>
<trk>
<name>hbmth42</name>
<cmt>v</cmt>
<desc>Thirimont Sentier n°42 </desc>
<link href="https://chemins.be/thirimont/sentier/42"/><trkseg>
<trkpt lat="50.264269" lon="4.240147"><time>2026-05-02T16:11:54Z</time></trkpt>
<trkpt lat="50.264519" lon="4.240758"><time>2026-05-02T16:21:54Z</time></trkpt>
</trkseg></trk>
<trk>
<name>hbmth42</name>
<cmt>q</cmt>
<desc>Thirimont Sentier n°42 </desc>
<link href="https://chemins.be/thirimont/sentier/42"/><trkseg>
<trkpt lat="50.264519" lon="4.240758"><time>2026-05-02T16:21:54Z</time></trkpt>
<trkpt lat="50.265383" lon="4.247228"><time>2026-05-02T16:31:54Z</time></trkpt>
<trkpt lat="50.266462" lon="4.248787"><time>2026-05-02T16:41:54Z</time></trkpt>
<trkpt lat="50.268053" lon="4.253622"><time>2026-05-02T16:51:54Z</time></trkpt>
<trkpt lat="50.268290" lon="4.253780"><time>2026-05-02T17:01:54Z</time></trkpt>
<trkpt lat="50.268912" lon="4.255010"><time>2026-05-02T17:11:54Z</time></trkpt>
</trkseg>
</trk>
<trk>
<name>hbmth43</name>
<cmt>q</cmt>
<desc>Thirimont Sentier n°43 </desc>
<link href="https://chemins.be/thirimont/sentier/43"/><trkseg>
<trkpt lat="50.265886" lon="4.247972"><time>2026-05-02T16:11:54Z</time></trkpt>
<trkpt lat="50.265776" lon="4.250261"><time>2026-05-02T16:21:54Z</time></trkpt>
</trkseg>
</trk>
<trk>
<name>hbmth46</name>
<cmt>q</cmt>
<desc>Thirimont Sentier n°46 </desc>
<link href="https://chemins.be/thirimont/sentier/46"/><trkseg>
<trkpt lat="50.255888" lon="4.241941"><time>2026-05-02T16:11:54Z</time></trkpt>
<trkpt lat="50.256648" lon="4.240937"><time>2026-05-02T16:21:54Z</time></trkpt>
<trkpt lat="50.257977" lon="4.241525"><time>2026-05-02T16:31:54Z</time></trkpt>
<trkpt lat="50.260898" lon="4.242817"><time>2026-05-02T16:41:54Z</time></trkpt>
<trkpt lat="50.261540" lon="4.242920"><time>2026-05-02T16:51:54Z</time></trkpt>
</trkseg>
</trk>
<trk>
<name>hbmth47</name>
<cmt>q</cmt>
<desc>Thirimont Sentier n°47 </desc>
<link href="https://chemins.be/thirimont/sentier/47"/><trkseg>
<trkpt lat="50.260185" lon="4.236980"><time>2026-05-02T16:11:54Z</time></trkpt>
<trkpt lat="50.259559" lon="4.238354"><time>2026-05-02T16:21:54Z</time></trkpt>
<trkpt lat="50.258508" lon="4.239319"><time>2026-05-02T16:31:54Z</time></trkpt>
<trkpt lat="50.258149" lon="4.239650"><time>2026-05-02T16:41:54Z</time></trkpt>
<trkpt lat="50.256503" lon="4.239435"><time>2026-05-02T16:51:54Z</time></trkpt>
<trkpt lat="50.254011" lon="4.240680"><time>2026-05-02T17:01:54Z</time></trkpt>
</trkseg></trk>
<trk>
<name>hbmth47</name>
<cmt>v</cmt>
<desc>Thirimont Sentier n°47 </desc>
<link href="https://chemins.be/thirimont/sentier/47"/><trkseg>
<trkpt lat="50.254011" lon="4.240680"><time>2026-05-02T17:01:54Z</time></trkpt>
<trkpt lat="50.251520" lon="4.240508"><time>2026-05-02T17:11:54Z</time></trkpt>
</trkseg></trk>
<trk>
<name>hbmth47</name>
<cmt>q</cmt>
<desc>Thirimont Sentier n°47 </desc>
<link href="https://chemins.be/thirimont/sentier/47"/><trkseg>
<trkpt lat="50.251520" lon="4.240508"><time>2026-05-02T17:11:54Z</time></trkpt>
<trkpt lat="50.248010" lon="4.240061"><time>2026-05-02T17:21:54Z</time></trkpt>
</trkseg>
</trk>
<trk>
<name>hbmth48</name>
<cmt>q</cmt>
<desc>Thirimont Sentier n°48 </desc>
<link href="https://chemins.be/thirimont/sentier/48"/><trkseg>
<trkpt lat="50.259584" lon="4.235354"><time>2026-05-02T16:11:54Z</time></trkpt>
<trkpt lat="50.259021" lon="4.235466"><time>2026-05-02T16:21:54Z</time></trkpt>
<trkpt lat="50.258931" lon="4.235667"><time>2026-05-02T16:31:54Z</time></trkpt>
<trkpt lat="50.258242" lon="4.236281"><time>2026-05-02T16:41:54Z</time></trkpt>
<trkpt lat="50.257131" lon="4.237714"><time>2026-05-02T16:51:54Z</time></trkpt>
<trkpt lat="50.256491" lon="4.239457"><time>2026-05-02T17:01:54Z</time></trkpt>
</trkseg>
</trk>
<trk>
<name>hbmth49</name>
<cmt>q</cmt>
<desc>Thirimont Sentier n°49 La Drève</desc>
<link href="https://chemins.be/thirimont/sentier/49"/><trkseg>
<trkpt lat="50.257835" lon="4.234413"><time>2026-05-02T16:11:54Z</time></trkpt>
<trkpt lat="50.257862" lon="4.234413"><time>2026-05-02T16:21:54Z</time></trkpt>
<trkpt lat="50.258463" lon="4.235035"><time>2026-05-02T16:31:54Z</time></trkpt>
<trkpt lat="50.258459" lon="4.235128"><time>2026-05-02T16:41:54Z</time></trkpt>
</trkseg>
</trk>
<trk>
<name>hbmth50</name>
<cmt>q</cmt>
<desc>Thirimont Sentier n°50 </desc>
<link href="https://chemins.be/thirimont/sentier/50"/><trkseg>
<trkpt lat="50.247511" lon="4.214236"><time>2026-05-02T16:11:54Z</time></trkpt>
<trkpt lat="50.249124" lon="4.216712"><time>2026-05-02T16:21:54Z</time></trkpt>
<trkpt lat="50.251750" lon="4.220218"><time>2026-05-02T16:31:54Z</time></trkpt>
<trkpt lat="50.253825" lon="4.220655"><time>2026-05-02T16:41:54Z</time></trkpt>
<trkpt lat="50.255422" lon="4.222544"><time>2026-05-02T16:51:54Z</time></trkpt>
<trkpt lat="50.256733" lon="4.223170"><time>2026-05-02T17:01:54Z</time></trkpt>
<trkpt lat="50.257088" lon="4.225170"><time>2026-05-02T17:11:54Z</time></trkpt>
<trkpt lat="50.259063" lon="4.228088"><time>2026-05-02T17:21:54Z</time></trkpt>
<trkpt lat="50.259510" lon="4.229496"><time>2026-05-02T17:31:54Z</time></trkpt>
<trkpt lat="50.259823" lon="4.230371"><time>2026-05-02T17:41:54Z</time></trkpt>
<trkpt lat="50.260767" lon="4.231522"><time>2026-05-02T17:51:54Z</time></trkpt>
<trkpt lat="50.260783" lon="4.232577"><time>2026-05-02T18:01:54Z</time></trkpt>
<trkpt lat="50.260432" lon="4.233753"><time>2026-05-02T18:11:54Z</time></trkpt>
</trkseg>
</trk>
<trk>
<name>hbmth51</name>
<cmt>q</cmt>
<desc>Thirimont Sentier n°51 </desc>
<link href="https://chemins.be/thirimont/sentier/51"/><trkseg>
<trkpt lat="50.252064" lon="4.226480"><time>2026-05-02T16:11:54Z</time></trkpt>
<trkpt lat="50.252453" lon="4.227045"><time>2026-05-02T16:21:54Z</time></trkpt>
<trkpt lat="50.255133" lon="4.228404"><time>2026-05-02T16:31:54Z</time></trkpt>
</trkseg>
</trk>
<trk>
<name>hbmth52</name>
<cmt>q</cmt>
<desc>Thirimont Sentier n°52 </desc>
<link href="https://chemins.be/thirimont/sentier/52"/><trkseg>
<trkpt lat="50.240824" lon="4.233078"><time>2026-05-02T16:11:54Z</time></trkpt>
<trkpt lat="50.242224" lon="4.231174"><time>2026-05-02T16:21:54Z</time></trkpt>
<trkpt lat="50.243259" lon="4.228746"><time>2026-05-02T16:31:54Z</time></trkpt>
<trkpt lat="50.243672" lon="4.228296"><time>2026-05-02T16:41:54Z</time></trkpt>
</trkseg></trk>
<trk>
<name>hbmth52</name>
<cmt>v</cmt>
<desc>Thirimont Sentier n°52 </desc>
<link href="https://chemins.be/thirimont/sentier/52"/><trkseg>
<trkpt lat="50.243672" lon="4.228296"><time>2026-05-02T16:41:54Z</time></trkpt>
<trkpt lat="50.243950" lon="4.227384"><time>2026-05-02T16:51:54Z</time></trkpt>
<trkpt lat="50.244569" lon="4.226877"><time>2026-05-02T17:01:54Z</time></trkpt>
<trkpt lat="50.245350" lon="4.225571"><time>2026-05-02T17:11:54Z</time></trkpt>
</trkseg></trk>
<trk>
<name>hbmth52</name>
<cmt>q</cmt>
<desc>Thirimont Sentier n°52 </desc>
<link href="https://chemins.be/thirimont/sentier/52"/><trkseg>
<trkpt lat="50.245350" lon="4.225571"><time>2026-05-02T17:11:54Z</time></trkpt>
<trkpt lat="50.246447" lon="4.225624"><time>2026-05-02T17:21:54Z</time></trkpt>
<trkpt lat="50.247569" lon="4.224274"><time>2026-05-02T17:31:54Z</time></trkpt>
<trkpt lat="50.249320" lon="4.222292"><time>2026-05-02T17:41:54Z</time></trkpt>
<trkpt lat="50.251789" lon="4.220223"><time>2026-05-02T17:51:54Z</time></trkpt>
</trkseg>
</trk>
<trk>
<name>hbmth52bis</name>
<cmt>v</cmt>
<desc>Thirimont Sentier n°52bis </desc>
<link href="https://chemins.be/thirimont/sentier/52bis"/><trkseg>
<trkpt lat="50.245350" lon="4.225515"><time>2026-05-02T16:11:54Z</time></trkpt>
<trkpt lat="50.245825" lon="4.224672"><time>2026-05-02T16:21:54Z</time></trkpt>
</trkseg>
</trk>
<trk>
<name>hbmth53</name>
<cmt>q</cmt>
<desc>Thirimont Sentier n°53 </desc>
<link href="https://chemins.be/thirimont/sentier/53"/><trkseg>
<trkpt lat="50.260740" lon="4.220456"><time>2026-05-02T16:11:54Z</time></trkpt>
<trkpt lat="50.260362" lon="4.218600"><time>2026-05-02T16:21:54Z</time></trkpt>
</trkseg>
</trk>
<trk>
<name>hbmth54</name>
<cmt>q</cmt>
<desc>Thirimont Sentier n°54 </desc>
<link href="https://chemins.be/thirimont/sentier/54"/><trkseg>
<trkpt lat="50.260744" lon="4.231534"><time>2026-05-02T16:11:54Z</time></trkpt>
<trkpt lat="50.261541" lon="4.230732"><time>2026-05-02T16:21:54Z</time></trkpt>
<trkpt lat="50.263330" lon="4.226681"><time>2026-05-02T16:31:54Z</time></trkpt>
<trkpt lat="50.263253" lon="4.222870"><time>2026-05-02T16:41:54Z</time></trkpt>
<trkpt lat="50.263955" lon="4.220621"><time>2026-05-02T16:51:54Z</time></trkpt>
<trkpt lat="50.264131" lon="4.218047"><time>2026-05-02T17:01:54Z</time></trkpt>
<trkpt lat="50.264330" lon="4.217929"><time>2026-05-02T17:11:54Z</time></trkpt>
<trkpt lat="50.264063" lon="4.216717"><time>2026-05-02T17:21:54Z</time></trkpt>
<trkpt lat="50.264207" lon="4.216497"><time>2026-05-02T17:31:54Z</time></trkpt>
<trkpt lat="50.264460" lon="4.214823"><time>2026-05-02T17:41:54Z</time></trkpt>
</trkseg>
</trk>
<trk>
<name>hbmth55</name>
<cmt>q</cmt>
<desc>Thirimont Sentier n°55 </desc>
<link href="https://chemins.be/thirimont/sentier/55"/><trkseg>
<trkpt lat="50.263329" lon="4.226741"><time>2026-05-02T16:11:54Z</time></trkpt>
<trkpt lat="50.264739" lon="4.224707"><time>2026-05-02T16:21:54Z</time></trkpt>
</trkseg>
</trk>
<trk>
<name>hbmth56</name>
<cmt>q</cmt>
<desc>Thirimont Sentier n°56 </desc>
<link href="https://chemins.be/thirimont/sentier/56"/><trkseg>
<trkpt lat="50.263992" lon="4.228974"><time>2026-05-02T16:11:54Z</time></trkpt>
<trkpt lat="50.263070" lon="4.228412"><time>2026-05-02T16:21:54Z</time></trkpt>
<trkpt lat="50.262492" lon="4.228587"><time>2026-05-02T16:31:54Z</time></trkpt>
</trkseg>
</trk>
<trk>
<name>hbmth57</name>
<cmt>q</cmt>
<desc>Thirimont Sentier n°57 Rue de France</desc>
<link href="https://chemins.be/thirimont/sentier/57"/><trkseg>
<trkpt lat="50.263850" lon="4.229478"><time>2026-05-02T16:11:54Z</time></trkpt>
<trkpt lat="50.263838" lon="4.229621"><time>2026-05-02T16:21:54Z</time></trkpt>
<trkpt lat="50.263254" lon="4.230300"><time>2026-05-02T16:31:54Z</time></trkpt>
<trkpt lat="50.263214" lon="4.230308"><time>2026-05-02T16:41:54Z</time></trkpt>
</trkseg>
</trk>
<trk>
<name>hbmth58</name>
<cmt>q</cmt>
<desc>Thirimont Sentier n°58 </desc>
<link href="https://chemins.be/thirimont/sentier/58"/><trkseg>
<trkpt lat="50.249825" lon="4.228000"><time>2026-05-02T16:11:54Z</time></trkpt>
<trkpt lat="50.249308" lon="4.222257"><time>2026-05-02T16:21:54Z</time></trkpt>
</trkseg>
</trk>
<trk>
<name>hbmth8</name>
<cmt>v</cmt>
<desc>Thirimont Chemin n°8 Chemin Saint-Remy</desc>
<link href="https://chemins.be/thirimont/chemin/8"/><trkseg>
<trkpt lat="50.257704" lon="4.245263"><time>2026-05-02T16:11:54Z</time></trkpt>
<trkpt lat="50.258259" lon="4.245649"><time>2026-05-02T16:21:54Z</time></trkpt>
<trkpt lat="50.261126" lon="4.243916"><time>2026-05-02T16:31:54Z</time></trkpt>
<trkpt lat="50.261763" lon="4.242199"><time>2026-05-02T16:41:54Z</time></trkpt>
<trkpt lat="50.263000" lon="4.241564"><time>2026-05-02T16:51:54Z</time></trkpt>
</trkseg></trk>
<trk>
<name>hbmth8</name>
<cmt>r</cmt>
<desc>Thirimont Chemin n°8 Chemin Saint-Remy</desc>
<link href="https://chemins.be/thirimont/chemin/8"/><trkseg>
<trkpt lat="50.263000" lon="4.241564"><time>2026-05-02T16:51:54Z</time></trkpt>
<trkpt lat="50.264333" lon="4.239804"><time>2026-05-02T17:01:54Z</time></trkpt>
<trkpt lat="50.265019" lon="4.237985"><time>2026-05-02T17:11:54Z</time></trkpt>
<trkpt lat="50.266533" lon="4.235229"><time>2026-05-02T17:21:54Z</time></trkpt>
<trkpt lat="50.266934" lon="4.234998"><time>2026-05-02T17:31:54Z</time></trkpt>
<trkpt lat="50.267449" lon="4.235178"><time>2026-05-02T17:41:54Z</time></trkpt>
<trkpt lat="50.272898" lon="4.228638"><time>2026-05-02T17:51:54Z</time></trkpt>
<trkpt lat="50.273370" lon="4.228054"><time>2026-05-02T18:01:54Z</time></trkpt>
<trkpt lat="50.273962" lon="4.227985"><time>2026-05-02T18:11:54Z</time></trkpt>
<trkpt lat="50.274291" lon="4.226973"><time>2026-05-02T18:21:54Z</time></trkpt>
<trkpt lat="50.275904" lon="4.225153"><time>2026-05-02T18:31:54Z</time></trkpt>
<trkpt lat="50.278186" lon="4.221806"><time>2026-05-02T18:41:54Z</time></trkpt>
<trkpt lat="50.279292" lon="4.221428"><time>2026-05-02T18:51:54Z</time></trkpt>
</trkseg></trk>
<trk>
<name>hbmth8</name>
<cmt>v</cmt>
<desc>Thirimont Chemin n°8 Chemin Saint-Remy</desc>
<link href="https://chemins.be/thirimont/chemin/8"/><trkseg>
<trkpt lat="50.279292" lon="4.221428"><time>2026-05-02T18:51:54Z</time></trkpt>
<trkpt lat="50.280213" lon="4.220404"><time>2026-05-02T19:01:54Z</time></trkpt>
<trkpt lat="50.281173" lon="4.219987"><time>2026-05-02T19:11:54Z</time></trkpt>
</trkseg>
</trk>
<trk>
<name>hbmthi1</name>
<cmt>q</cmt>
<desc>Thirimont Chemin n°i1 </desc>
<link href="https://chemins.be/thirimont/chemin/i1"/><trkseg>
<trkpt lat="50.246756" lon="4.221473"><time>2026-05-02T16:11:54Z</time></trkpt>
<trkpt lat="50.245468" lon="4.219206"><time>2026-05-02T16:21:54Z</time></trkpt>
</trkseg>
</trk>
<trk>
<name>hbmthi2</name>
<cmt>v</cmt>
<desc>Thirimont Chemin n°i2 Rue du Monument</desc>
<link href="https://chemins.be/thirimont/chemin/i2"/><trkseg>
<trkpt lat="50.264916" lon="4.235288"><time>2026-05-02T16:11:54Z</time></trkpt>
<trkpt lat="50.264987" lon="4.235008"><time>2026-05-02T16:21:54Z</time></trkpt>
<trkpt lat="50.265023" lon="4.234601"><time>2026-05-02T16:31:54Z</time></trkpt>
<trkpt lat="50.265014" lon="4.234306"><time>2026-05-02T16:41:54Z</time></trkpt>
<trkpt lat="50.264977" lon="4.234026"><time>2026-05-02T16:51:54Z</time></trkpt>
<trkpt lat="50.265003" lon="4.233325"><time>2026-05-02T17:01:54Z</time></trkpt>
<trkpt lat="50.264967" lon="4.232974"><time>2026-05-02T17:11:54Z</time></trkpt>
<trkpt lat="50.264886" lon="4.232652"><time>2026-05-02T17:21:54Z</time></trkpt>
<trkpt lat="50.264787" lon="4.232456"><time>2026-05-02T17:31:54Z</time></trkpt>
<trkpt lat="50.264429" lon="4.232277"><time>2026-05-02T17:41:54Z</time></trkpt>
</trkseg>
</trk>
<trk>
<name>hbmthi3</name>
<cmt>q</cmt>
<desc>Thirimont Chemin n°i3 Château de la Mazelle</desc>
<link href="https://chemins.be/thirimont/chemin/i3"/><trkseg>
<trkpt lat="50.245825" lon="4.224658"><time>2026-05-02T16:11:54Z</time></trkpt>
<trkpt lat="50.244455" lon="4.221943"><time>2026-05-02T16:21:54Z</time></trkpt>
</trkseg>
</trk>
<trk>
<name>hbmthi4</name>
<cmt>q</cmt>
<desc>Thirimont Chemin n°i4 </desc>
<link href="https://chemins.be/thirimont/chemin/i4"/><trkseg>
<trkpt lat="50.276797" lon="4.234925"><time>2026-05-02T16:11:54Z</time></trkpt>
<trkpt lat="50.279856" lon="4.236656"><time>2026-05-02T16:21:54Z</time></trkpt>
<trkpt lat="50.280258" lon="4.229046"><time>2026-05-02T16:31:54Z</time></trkpt>
</trkseg>
</trk>
<trk>
<name>hbmthp1</name>
<cmt>q</cmt>
<desc>Thirimont Chemin particulier n°p1 </desc>
<link href="https://chemins.be/thirimont/chemin/p1"/><trkseg>
<trkpt lat="50.250447" lon="4.232903"><time>2026-05-02T16:11:54Z</time></trkpt>
<trkpt lat="50.248946" lon="4.233332"><time>2026-05-02T16:21:54Z</time></trkpt>
<trkpt lat="50.248379" lon="4.229026"><time>2026-05-02T16:31:54Z</time></trkpt>
</trkseg>
</trk>
</gpx>